CW3847 La Orotava ES current weather conditions

sailwx.info

Wind from 322 at 2 knots gusting 5

Air temperature 21.7° C
Dewpoint 16.8° C

Last reported at 2015-Mar-30 15:40 UTC.
Time now 2015-Mar-30 16:17 UTC

Location: N 28°23' W 016°31'.
View on Google Maps.

See reports from other nearby stations

  
Tides and Currents Weather Stations Pressure Air Temp Water Temp Dewpoint Dewpoint Depression Visibility Wind Speed Wind Dir Waves Ship Positions
date/time (UTC)wind fromknots sea level pressurealtimeterstation pressurevisibilityair tempwater tempwave heightnotes
2015-Mar-30 15:40 322 2 gusting 5 21.7
2015-Mar-30 15:20 308 2 gusting 6 21.1
2015-Mar-30 14:50 325 2 gusting 5 21.7
2015-Mar-30 14:40 297 2 gusting 6 21.7
2015-Mar-30 14:20 323 1 gusting 6 21.7
2015-Mar-30 14:10 309 3 gusting 3 21.1
2015-Mar-30 14:00 324 4 gusting 6 21.1
2015-Mar-30 13:40 349 2 gusting 7 21.1
2015-Mar-30 13:30 260 2 gusting 7 21.1
2015-Mar-30 13:20 287 1 gusting 6 21.7
2015-Mar-30 13:10 315 2 gusting 5 21.7
2015-Mar-30 13:00 327 1 gusting 3 21.1
2015-Mar-30 12:50 328 3 gusting 3 21.1
2015-Mar-30 12:40 329 3 gusting 4 21.1
2015-Mar-30 12:20 342 2 gusting 3 21.1
2015-Mar-30 12:00 334 1 gusting 4 20.6
2015-Mar-30 11:50 324 0 gusting 2 20.0
2015-Mar-30 11:10 310 2 gusting 3 20.0
2015-Mar-30 11:00 311 1 gusting 3 20.0
2015-Mar-30 10:30 294 1 gusting 2 19.4
2015-Mar-30 10:20 290 0 gusting 3 18.9
2015-Mar-30 10:10 288 0 gusting 2 18.9
2015-Mar-30 09:50 316 0 gusting 3 19.4
2015-Mar-30 09:30 271 1 gusting 2 18.3
2015-Mar-30 09:20 221 2 gusting 2 17.8
2015-Mar-30 09:10 293 0 gusting 2 17.2
2015-Mar-30 09:00 221 0 gusting 4 17.8
2015-Mar-30 08:50 299 0 gusting 4 17.8
2015-Mar-30 07:50 208 0 gusting 2 16.7
2015-Mar-30 07:40 169 3 gusting 4 16.1
2015-Mar-30 07:30 163 1 gusting 4 15.6
2015-Mar-30 06:30 166 2 gusting 4 15.6
2015-Mar-30 06:20 188 2 gusting 3 15.0
2015-Mar-30 06:00 257 2 gusting 5 13.9
2015-Mar-30 05:50 235 2 gusting 2 13.9
2015-Mar-30 05:20 167 2 gusting 2 12.8
2015-Mar-30 05:00 167 2 gusting 2 13.3
2015-Mar-30 04:20 157 3 gusting 3 13.3
2015-Mar-30 04:00 103 1 gusting 5 13.3
2015-Mar-30 03:40 046 1 gusting 2 13.3
2015-Mar-30 03:30 136 0 gusting 2 13.3
2015-Mar-30 03:20 156 3 gusting 3 13.9
2015-Mar-30 03:10 111 2 gusting 5 13.9
2015-Mar-30 03:00 097 2 gusting 5 13.9
2015-Mar-30 02:40 126 1 gusting 3 13.3
2015-Mar-30 02:30 109 2 gusting 2 13.3
2015-Mar-30 02:10 128 2 gusting 3 13.3
2015-Mar-30 02:00 124 2 gusting 3 13.3
2015-Mar-30 01:50 178 3 gusting 5 13.9
2015-Mar-30 01:40 105 2 gusting 4 13.9
2015-Mar-30 01:30 187 1 gusting 2 13.9
2015-Mar-30 01:20 165 0 gusting 1 13.9
2015-Mar-30 01:10 171 2 gusting 2 13.9
2015-Mar-30 00:50 234 2 gusting 4 13.9
2015-Mar-30 00:20 229 1 gusting 3 13.9
2015-Mar-29 23:50 238 2 gusting 3 13.9
2015-Mar-29 23:40 225 1 gusting 2 13.9
2015-Mar-29 23:30 209 2 gusting 4 13.9
2015-Mar-29 23:10 205 14.4
2015-Mar-29 23:00 205 2 gusting 2 14.4
2015-Mar-29 22:50 267 14.4
2015-Mar-29 22:40 267 14.4
2015-Mar-29 22:20 267 2 gusting 3 14.4
2015-Mar-29 22:00 355 14.4
2015-Mar-29 21:50 355 14.4
2015-Mar-29 21:40 355 0 gusting 1 14.4
2015-Mar-29 21:20 031 2 gusting 4 14.4
2015-Mar-29 21:10 014 2 gusting 2 15.0
2015-Mar-29 20:50 055 15.0
2015-Mar-29 20:40 360 2 gusting 3 15.0
2015-Mar-29 20:30 005 2 gusting 3 15.0
2015-Mar-29 20:10 032 15.0
2015-Mar-29 19:50 328 15.0
2015-Mar-29 19:40 351 15.0
2015-Mar-29 19:20 351 15.0
2015-Mar-29 19:00 351 0 gusting 1 15.0
2015-Mar-29 18:50 351 1 gusting 2 15.0
2015-Mar-29 18:20 010 2 gusting 2 15.0
2015-Mar-29 18:00 015 0 gusting 2 15.0
2015-Mar-29 17:50 013 0 gusting 3 15.0
2015-Mar-29 17:30 047 0 gusting 4 15.0
2015-Mar-29 17:20 005 3 gusting 6 15.0
2015-Mar-29 17:00 036 4 gusting 6 15.0
2015-Mar-29 16:50 041 0 gusting 3 15.0
2015-Mar-29 16:40 051 2 gusting 3 15.0
2015-Mar-29 16:30 013 2 gusting 5 15.0
2015-Mar-29 16:20 033 2 gusting 5 15.6
2015-Mar-29 15:50 342 1 gusting 3 15.6
2015-Mar-29 15:40 348 2 gusting 3 15.6
2015-Mar-29 15:30 322 1 gusting 2 15.6
2015-Mar-29 15:20 299 2 gusting 3 15.6
2015-Mar-29 15:10 355 3 gusting 6 15.6
2015-Mar-29 14:40 330 2 gusting 2 15.6
2015-Mar-29 14:30 347 2 gusting 7 15.6
2015-Mar-29 13:50 005 1 gusting 8 15.6
2015-Mar-29 13:40 014 1 gusting 6 15.6
2015-Mar-29 13:30 360 4 gusting 6 15.6
2015-Mar-29 13:20 343 2 gusting 6 15.6
2015-Mar-29 13:00 040 3 gusting 7 15.6
2015-Mar-29 12:50 010 5 gusting 6 15.6
2015-Mar-29 12:40 360 4 gusting 8 15.6
2015-Mar-29 12:30 005 4 gusting 8 15.6
2015-Mar-29 12:10 023 3 gusting 6 15.6
2015-Mar-29 12:00 355 3 gusting 5 15.6
2015-Mar-29 11:40 016 2 gusting 7 15.6
2015-Mar-29 10:40 329 1 gusting 2 16.7
2015-Mar-29 10:20 319 2 gusting 2 16.1
2015-Mar-29 10:00 355 2 gusting 3 16.7
2015-Mar-29 09:50 318 2 gusting 3 16.1
2015-Mar-29 09:40 308 1 gusting 2 16.1
2015-Mar-29 09:30 227 1 gusting 2 16.1
2015-Mar-29 09:20 257 1 gusting 2 16.1
2015-Mar-29 09:10 240 0 gusting 1 15.6
2015-Mar-29 09:00 188 0 gusting 1 15.6
2015-Mar-29 08:50 188 0 gusting 1 15.0
2015-Mar-29 08:20 173 0 gusting 2 12.8
2015-Mar-29 08:10 188 2 gusting 4 11.7
2015-Mar-29 08:00 188 2 gusting 4 11.7
2015-Mar-29 07:50 165 1 gusting 4 11.7
2015-Mar-29 07:20 161 2 gusting 3 11.7
2015-Mar-29 07:10 178 0 gusting 2 11.7
2015-Mar-29 06:50 191 1 gusting 2 11.7
2015-Mar-29 06:40 178 1 gusting 3 11.7
2015-Mar-29 06:10 178 1 gusting 3 11.7
2015-Mar-29 05:50 180 1 gusting 2 11.7
2015-Mar-29 05:40 173 1 gusting 3 11.7
2015-Mar-29 05:20 157 1 gusting 2 12.2
2015-Mar-29 05:10 141 1 gusting 2 12.2
2015-Mar-29 05:00 150 2 gusting 3 12.2
2015-Mar-29 04:50 153 1 gusting 2 12.2
2015-Mar-29 04:30 167 3 gusting 4 12.2
2015-Mar-29 04:20 141 2 gusting 4 12.2
2015-Mar-29 04:10 161 2 gusting 5 12.2
2015-Mar-29 04:00 123 1 gusting 6 12.8
2015-Mar-29 03:50 146 1 gusting 5 12.8
2015-Mar-29 03:20 153 2 gusting 4 13.3
2015-Mar-29 03:00 156 1 gusting 3 13.3
2015-Mar-29 02:50 178 0 gusting 2 13.3
2015-Mar-29 02:40 159 2 gusting 4 13.3
2015-Mar-29 02:30 174 0 gusting 3 13.3
2015-Mar-29 02:20 165 1 gusting 4 13.3
2015-Mar-29 02:00 186 0 gusting 4 13.3
2015-Mar-29 01:40 173 1 gusting 3 13.3
2015-Mar-29 01:20 194 2 gusting 4 13.3
2015-Mar-29 01:10 186 1 gusting 3 13.3
2015-Mar-29 01:00 171 2 gusting 3 13.3
2015-Mar-29 00:40 185 2 gusting 3 13.3
2015-Mar-29 00:10 191 2 gusting 5 13.3
2015-Mar-29 00:00 196 2 gusting 4 13.3
2015-Mar-28 23:50 170 2 gusting 2 13.3
2015-Mar-28 23:40 167 2 gusting 3 13.3
2015-Mar-28 23:30 192 1 gusting 4 13.9
2015-Mar-28 22:50 225 1 gusting 4 13.9
2015-Mar-28 22:40 210 14.4
2015-Mar-28 22:30 210 1 gusting 1 14.4
2015-Mar-28 22:20 210 0 gusting 2 14.4
2015-Mar-28 22:10 210 0 gusting 1 14.4
2015-Mar-28 22:00 210 1 gusting 2 14.4
2015-Mar-28 21:50 223 0 gusting 2 14.4
2015-Mar-28 21:20 263 14.4
2015-Mar-28 21:10 241 1 gusting 2 14.4
2015-Mar-28 21:00 291 0 gusting 2 14.4
2015-Mar-28 20:50 320 14.4
2015-Mar-28 20:40 320 14.4
2015-Mar-28 20:30 320 0 gusting 2 14.4
2015-Mar-28 20:20 320 14.4
2015-Mar-28 20:00 320 0 gusting 1 14.4
2015-Mar-28 19:40 320 1 gusting 2 14.4
2015-Mar-28 19:30 350 14.4
2015-Mar-28 19:20 350 14.4
2015-Mar-28 19:10 355 2 gusting 6 14.4
2015-Mar-28 18:50 015 2 gusting 4 15.0
2015-Mar-28 18:30 336 2 gusting 2 15.0
2015-Mar-28 18:20 022 0 gusting 1 15.0
2015-Mar-28 18:10 022 0 gusting 1 15.0
2015-Mar-28 18:00 022 0 gusting 2 15.0
2015-Mar-28 17:50 022 0 gusting 2 15.0
2015-Mar-28 17:40 005 1 gusting 1 15.0
2015-Mar-28 17:10 341 2 gusting 2 15.0
2015-Mar-28 16:50 015 2 gusting 2 15.0
2015-Mar-28 16:40 355 2 gusting 2 15.0
2015-Mar-28 16:20 355 2 gusting 4 15.0
2015-Mar-28 16:10 360 2 gusting 3 15.0